Torna al catalogo

STARLINK-31607

AttivoComunicazioniVLEO
NORAD 59394·PAYLOAD·🇺🇸 United States

Lanciato Apr 2, 2024 da Vandenberg Space Force Base

Loading…

Prossimi Passaggi (prossime 24 ore)

TLE

AggiornatoSource: CelesTrak SupGP

Epoca: Sep 15, 2026, 03:12 UTC

1 59394C 24062W   26258.13381944 -.00011770  00000+0 -34777-3 0  2586
2 59394  53.1562  92.7888 0001248  86.9239  48.7613 15.34395352    18

Traccia STARLINK-31607 in tempo reale con AllMySat

Download on the App Store